EW5295 Weather Reports


time (UTC)temp
C
wind
direction
speed
KPH
gust
KPH
rain 1hr
cm
rain 24hr
cm
rain mn
cm
humidity
%
barometer
mb
20260906173047 13 162 0.0 0.0 0.08 0.13 0.13 95 1015.7
20260906171604 13 162 0.0 0.0 0.08 0.10 0.10 95 1015.6
20260906170056 13 162 0.0 0.0 0.08 0.08 0.08 95 1015.6
20260906164543 13 162 0.0 0.0 0.05 0.05 0.05 95 1015.4
20260906163042 12 162 0.0 0.0 0.05 0.05 0.05 95 1015.3
20260906161559 12 162 0.0 0.0 0.03 0.03 0.03 95 1015.2
20260906160028 -17 0.0 0.0 0.00 0.00 0.00 1015.2
20260906154527 -17 0.0 0.0 0.00 0.00 0.00 1015.2
20260906153035 -17 0.0 0.0 0.00 0.00 0.00 1015.3
20260906151521 -17 0.0 0.0 0.00 0.00 0.00 1015.2
20260906150015 -17 0.0 0.0 0.00 0.00 0.00 1015.0
20260906144515 -17 0.0 0.0 0.00 0.00 0.00 1014.8
20260906143006 -17 0.0 0.0 0.00 0.00 0.00 1014.8
20260906141501 -17 0.0 0.0 0.00 0.00 0.00 1014.8
20260906140046 -17 0.0 0.0 0.00 0.00 0.00 1014.6
20260906134541 -17 0.0 0.0 0.00 0.00 0.00 1014.4
20260906133043 -17 0.0 0.0 0.00 0.00 0.00 1014.2
20260906131543 -17 0.0 0.0 0.00 0.00 0.00 1014.1
20260906130030 -17 0.0 0.0 0.00 0.00 0.00 1014.1
20260906124524 -17 0.0 0.0 0.00 0.00 0.00 1014.2
20260906123023 -17 0.0 0.0 0.00 0.00 0.00 1014.2
20260906121531 -17 0.0 0.0 0.00 0.00 0.00 1014.3
20260906120105 -17 0.0 0.0 0.00 0.00 0.00 1014.3
20260906114558 -17 0.0 0.0 0.00 0.00 0.00 1014.3
20260906113044 12 167 0.0 0.0 0.00 0.00 0.00 87 1014.4
20260906111547 13 165 0.0 0.0 0.00 0.00 0.00 87 1014.4
20260906110042 13 169 0.0 0.0 0.00 0.00 0.00 87 1014.3
20260906104541 13 169 0.0 0.0 0.00 0.00 0.00 87 1014.3
20260906103046 13 169 0.0 0.0 0.00 0.00 0.00 87 1014.3
20260906101540 13 170 0.0 0.0 0.00 0.03 0.00 87 1014.2
20260906100038 13 157 0.0 0.0 0.00 0.03 0.00 87 1014.2
20260906094544 13 156 0.0 0.0 0.00 0.03 0.00 87 1014.2
20260906093025 13 154 0.0 0.0 0.00 0.03 0.00 87 1014.2
20260906091527 13 155 0.0 0.0 0.00 0.03 0.00 87 1014.3
20260906090026 13 155 0.0 0.0 0.00 0.03 0.00 87 1014.3
20260906084524 13 150 0.0 1.6 0.00 0.03 0.00 87 1014.2
20260906083023 13 120 0.0 0.0 0.00 0.03 0.00 87 1014.2
20260906081523 13 120 0.0 0.0 0.00 0.03 0.00 86 1014.2
20260906080024 13 120 0.0 0.0 0.00 0.03 0.00 86 1014.2
20260906074520 13 129 0.0 0.0 0.00 0.03 0.00 86 1014.3
20260906073007 13 129 0.0 0.0 0.00 0.03 0.00 86 1014.4
20260906071510 13 129 0.0 0.0 0.00 0.03 0.00 86 1014.4
20260906070006 13 129 0.0 0.0 0.00 0.03 0.00 87 1014.4
20260906064506 13 129 0.0 0.0 0.00 0.03 0.00 87 1014.5
20260906063005 13 129 0.0 0.0 0.00 0.03 0.00 86 1014.5
20260906061504 13 129 0.0 0.0 0.00 0.03 0.00 87 1014.4
20260906060004 13 129 0.0 0.0 0.00 0.03 0.00 86 1014.6
20260906054501 13 129 0.0 0.0 0.00 0.03 0.00 85 1014.6
20260906053101 13 129 0.0 1.6 0.00 0.03 0.00 85 1014.6
20260906051546 14 142 0.0 0.0 0.00 0.03 0.00 84 1014.7
20260906050044 14 167 0.0 0.0 0.00 0.03 0.00 83 1014.7
20260906044542 15 141 0.0 1.6 0.00 0.03 0.00 81 1014.8
20260906043040 15 136 0.0 0.0 0.00 0.03 0.00 79 1014.9
20260906041538 15 136 0.0 0.0 0.00 0.03 0.00 77 1015.0
20260906040037 15 123 0.0 0.0 0.00 0.03 0.00 75 1015.0
20260906034551 16 123 0.0 0.0 0.00 0.03 0.00 73 1014.9
20260906033035 16 123 0.0 0.0 0.00 0.03 0.00 73 1014.7
20260906031621 16 123 0.0 0.0 0.00 0.03 0.00 72 1014.6
20260906030018 16 156 0.0 0.0 0.00 0.03 0.00 73 1014.5
20260906024517 16 156 0.0 0.0 0.00 0.03 0.00 72 1014.6
20260906023015 16 156 0.0 0.0 0.00 0.03 0.00 70 1014.5
20260906021512 17 156 0.0 0.0 0.00 0.05 0.00 68 1014.6
20260906020009 17 156 0.0 0.0 0.00 0.05 0.00 65 1014.6
20260906014507 18 156 0.0 0.0 0.00 0.05 0.00 64 1014.7
20260906013002 18 156 0.0 0.0 0.00 0.05 0.00 63 1014.8
20260906011552 19 156 0.0 0.0 0.00 0.10 0.00 58 1014.7
20260906010123 19 156 0.0 0.0 0.00 0.10 0.00 62 1014.6
20260906004608 20 156 0.0 0.0 0.00 0.10 0.00 60 1014.7
20260906003049 20 156 0.0 0.0 0.00 0.10 0.00 58 1014.8
20260906001600 20 158 0.0 1.6 0.00 0.28 0.00 55 1014.8
20260906000047 20 290 0.0 1.6 0.00 0.28 0.00 58 1014.7
20260905234545 20 300 0.0 1.6 0.00 0.28 0.00 59 1014.7
20260905233044 19 127 0.0 1.6 0.00 0.28 0.00 57 1014.8
20260905231531 19 127 0.0 1.6 0.00 0.36 0.00 59 1014.9
20260905230034 19 172 0.0 3.2 0.00 0.36 0.00 61 1015.0
20260905224530 20 151 0.0 1.6 0.00 0.36 0.00 63 1015.1
20260905223041 20 156 0.0 1.6 0.00 0.36 0.00 58 1015.2
20260905221524 20 160 0.0 0.0 0.00 0.36 0.00 61 1015.3
20260905220019 19 145 0.0 1.6 0.00 0.36 0.00 62 1015.4
20260905214516 19 302 0.0 1.6 0.00 0.36 0.00 64 1015.5
20260905213014 18 155 0.0 0.0 0.00 0.36 0.00 68 1015.6
20260905211609 18 148 0.0 0.0 0.00 0.36 0.36 67 1015.7
20260905210117 18 148 0.0 0.0 0.00 0.36 0.36 67 1015.8
20260905204600 18 151 0.0 3.2 0.00 0.36 0.36 65 1015.9
20260905203055 18 121 0.0 0.0 0.00 0.36 0.36 71 1016.0
20260905201553 17 122 0.0 1.6 0.00 0.36 0.36 72 1016.0
20260905200114 17 120 0.0 1.6 0.00 0.36 0.36 72 1016.0
20260905194553 17 95 0.0 1.6 0.00 0.36 0.36 74 1016.1
20260905193052 17 158 0.0 4.8 0.00 0.36 0.36 72 1016.1
20260905191541 16 137 0.0 1.6 0.00 0.36 0.36 74 1016.2
20260905190040 16 131 0.0 0.0 0.00 0.36 0.36 77 1016.3
20260905184548 16 281 0.0 0.0 0.00 0.36 0.36 80 1016.5
20260905183043 16 281 0.0 0.0 0.00 0.36 0.36 79 1016.6
20260905181637 16 283 0.0 1.6 0.00 0.36 0.36 83 1016.6
20260905180041 15 289 0.0 0.0 0.00 0.36 0.36 83 1016.7